BSAT-4B

Last updated on Mon Feb 16 2026 00:02:51 GMT+0000 (Coordinated Universal Time)

1 46112U 20056A 26046.59240418 -.00000345 00000+0 00000+0 0 9999 2 46112 0.0479 222.9384 0001097 214.2936 31.4458 1.00269500 20178
UTC large
Height (km)
Speed (km/s)
/
Latitude / Longitude
Inclination (degrees)
Orbital Period (minutes)
Azimuth
Elevation
Range (km)
Doppler Factor

Next 0 passes for location: London (51.5072 / 0.1276)

Sorry there are no passes over London.